When you browse on this site, cookies collect data to enhance your experience and personalize the content and advertising you see.
Visit our Privacy Policy to learn more. By continuing to use the site, you agree to this use of cookies and data.
  • In Spain
  • List of Countries
  • For 7 days
  • Water Temperature
  • Satellite Maps
  • Weather Map
  • Weather Widgets
  • user-avatar
    Login

    Hourly Weather Dalat

    Today, 19 February, Tuesday

    Time Temperature Precipitation Wind Pressure Humidity
    00:00 +16°C° 0 mm 0 mps 654 mmHg 97%
    01:00 +15°C° 0 mm 0 mps 653 mmHg 97%
    02:00 +15°C° 0 mm 0 mps 653 mmHg 97%
    03:00 +15°C° 0 mm 0 mps 653 mmHg 97%
    04:00 +16°C° 0 mm 1 mps 653 mmHg 97%
    05:00 +16°C° 0 mm 1 mps 653 mmHg 94%
    06:00 +18°C° 0 mm 1 mps 654 mmHg 91%
    07:00 +18°C° 0 mm 1 mps 654 mmHg 89%
    08:00 +21°C° 0 mm 1 mps 655 mmHg 74%
    09:00 +24°C° 0 mm 1 mps 656 mmHg 60%
    10:00 +27°C° 0 mm 1 mps 658 mmHg 46%
    11:00 +28°C° 0 mm 2 mps 657 mmHg 44%
    12:00 +28°C° 0 mm 2 mps 657 mmHg 42%
    13:00 +29°C° 0 mm 2 mps 657 mmHg 39%
    14:00 +28°C° 0 mm 2 mps 656 mmHg 46%
    15:00 +26°C° 0 mm 2 mps 655 mmHg 53%
    16:00 +25°C° 0 mm 2 mps 655 mmHg 59%
    17:00 +23°C° 0.1 mm 1 mps 654 mmHg 69%
    18:00 +21°C° 0.1 mm 1 mps 654 mmHg 79%
    19:00 +19°C° 0.1 mm 1 mps 654 mmHg 89%
    20:00 +19°C° 0 mm 1 mps 654 mmHg 92%
    21:00 +18°C° 0 mm 1 mps 655 mmHg 94%
    22:00 +18°C° 0 mm 1 mps 655 mmHg 97%
    23:00 +18°C° 0 mm 1 mps 655 mmHg 97%

    Tomorrow, 20 February, Wednesday

    Time Temperature Precipitation Wind Pressure Humidity
    00:00 +16°C° 0 mm 1 mps 654 mmHg 97%
    01:00 +16°C° 0 mm 1 mps 654 mmHg 97%
    02:00 +16°C° 0 mm 1 mps 654 mmHg 95%
    03:00 +15°C° 0 mm 1 mps 654 mmHg 93%
    04:00 +15°C° 0 mm 1 mps 653 mmHg 92%
    05:00 +16°C° 0 mm 1 mps 654 mmHg 88%
    06:00 +16°C° 0 mm 1 mps 654 mmHg 84%
    07:00 +18°C° 0 mm 1 mps 655 mmHg 81%
    08:00 +21°C° 0 mm 1 mps 656 mmHg 67%
    09:00 +24°C° 0 mm 1 mps 657 mmHg 53%
    10:00 +28°C° 0 mm 2 mps 659 mmHg 39%
    11:00 +29°C° 0 mm 2 mps 658 mmHg 38%
    12:00 +30°C° 0 mm 2 mps 658 mmHg 36%
    13:00 +31°C° 0 mm 2 mps 658 mmHg 35%
    14:00 +29°C° 0.1 mm 2 mps 657 mmHg 42%
    15:00 +28°C° 0.1 mm 2 mps 656 mmHg 49%
    16:00 +26°C° 0.1 mm 2 mps 655 mmHg 56%
    17:00 +24°C° 0.1 mm 1 mps 655 mmHg 68%
    18:00 +22°C° 0.1 mm 1 mps 654 mmHg 80%
    19:00 +20°C° 0.1 mm 1 mps 654 mmHg 91%
    20:00 +20°C° 0 mm 1 mps 655 mmHg 93%
    21:00 +19°C° 0 mm 1 mps 655 mmHg 95%
    22:00 +19°C° 0 mm 1 mps 655 mmHg 96%
    23:00 +19°C° 0 mm 1 mps 655 mmHg 96%

    Day after tomorrow, 21 February, Thursday

    Time Temperature Precipitation Wind Pressure Humidity
    00:00 +18°C° 0 mm 1 mps 655 mmHg 97%
    01:00 +18°C° 0 mm 1 mps 654 mmHg 97%
    02:00 +16°C° 0 mm 1 mps 654 mmHg 96%
    03:00 +16°C° 0 mm 1 mps 654 mmHg 95%
    04:00 +16°C° 0 mm 1 mps 653 mmHg 94%
    05:00 +18°C° 0 mm 1 mps 654 mmHg 91%
    06:00 +18°C° 0 mm 1 mps 654 mmHg 87%
    07:00 +19°C° 0 mm 1 mps 655 mmHg 84%
    08:00 +22°C° 0 mm 1 mps 656 mmHg 69%
    09:00 +25°C° 0 mm 1 mps 658 mmHg 54%
    10:00 +29°C° 0 mm 1 mps 659 mmHg 40%
    11:00 +30°C° 0 mm 1 mps 658 mmHg 36%
    12:00 +31°C° 0 mm 1 mps 658 mmHg 33%
    13:00 +32°C° 0 mm 2 mps 657 mmHg 30%
    14:00 +30°C° 0 mm 2 mps 656 mmHg 35%
    15:00 +29°C° 0 mm 1 mps 655 mmHg 41%
    16:00 +27°C° 0 mm 1 mps 654 mmHg 46%
    17:00 +25°C° 0 mm 1 mps 654 mmHg 58%
    18:00 +22°C° 0 mm 1 mps 653 mmHg 69%
    19:00 +20°C° 0 mm 1 mps 653 mmHg 81%
    20:00 +19°C° 0 mm 1 mps 653 mmHg 84%
    21:00 +19°C° 0 mm 1 mps 654 mmHg 87%
    22:00 +18°C° 0 mm 1 mps 654 mmHg 90%
    23:00 +18°C° 0 mm 1 mps 654 mmHg 86%

    22 February, Friday

    Time Temperature Precipitation Wind Pressure Humidity
    00:00 +18°C° 0 mm 1 mps 653 mmHg 83%
    01:00 +16°C° 0 mm 1 mps 653 mmHg 80%
    02:00 +16°C° 0 mm 1 mps 652 mmHg 78%
    03:00 +16°C° 0 mm 1 mps 652 mmHg 76%
    04:00 +16°C° 0 mm 1 mps 652 mmHg 74%
    05:00 +16°C° 0 mm 1 mps 653 mmHg 71%
    06:00 +18°C° 0 mm 1 mps 653 mmHg 69%
    07:00 +19°C° 0 mm 1 mps 654 mmHg 66%
    08:00 +22°C° 0 mm 1 mps 655 mmHg 56%
    09:00 +25°C° 0 mm 1 mps 657 mmHg 46%
    10:00 +29°C° 0 mm 1 mps 658 mmHg 36%
    11:00 +30°C° 0 mm 2 mps 657 mmHg 34%
    12:00 +31°C° 0 mm 2 mps 657 mmHg 32%
    13:00 +32°C° 0 mm 2 mps 656 mmHg 29%
    14:00 +30°C° 0 mm 2 mps 655 mmHg 34%
    15:00 +28°C° 0 mm 2 mps 654 mmHg 39%
    16:00 +26°C° 0 mm 1 mps 653 mmHg 44%
    17:00 +24°C° 0 mm 1 mps 653 mmHg 54%
    18:00 +22°C° 0 mm 1 mps 653 mmHg 64%
    19:00 +19°C° 0 mm 1 mps 653 mmHg 74%
    20:00 +19°C° 0 mm 1 mps 653 mmHg 76%
    21:00 +18°C° 0 mm 1 mps 653 mmHg 78%
    22:00 +16°C° 0 mm 1 mps 654 mmHg 80%
    23:00 +16°C° 0 mm 1 mps 653 mmHg 75%

    23 February, Saturday

    Time Temperature Precipitation Wind Pressure Humidity
    00:00 +16°C° 0 mm 1 mps 653 mmHg 70%
    01:00 +15°C° 0 mm 1 mps 652 mmHg 66%
    02:00 +15°C° 0 mm 1 mps 652 mmHg 63%
    03:00 +15°C° 0 mm 1 mps 652 mmHg 60%
    04:00 +15°C° 0 mm 1 mps 652 mmHg 57%
    05:00 +15°C° 0 mm 1 mps 653 mmHg 56%
    06:00 +16°C° 0 mm 1 mps 653 mmHg 56%
    07:00 +18°C° 0 mm 1 mps 654 mmHg 55%
    08:00 +21°C° 0 mm 1 mps 655 mmHg 48%
    09:00 +25°C° 0 mm 1 mps 656 mmHg 41%
    10:00 +28°C° 0 mm 1 mps 658 mmHg 33%
    11:00 +29°C° 0 mm 1 mps 657 mmHg 32%
    12:00 +30°C° 0 mm 2 mps 656 mmHg 30%
    13:00 +31°C° 0 mm 2 mps 656 mmHg 28%
    14:00 +30°C° 0 mm 2 mps 655 mmHg 32%
    15:00 +29°C° 0 mm 2 mps 654 mmHg 36%
    16:00 +28°C° 0 mm 2 mps 654 mmHg 40%
    17:00 +25°C° 0 mm 2 mps 653 mmHg 54%
    18:00 +22°C° 0 mm 1 mps 653 mmHg 68%
    19:00 +19°C° 0 mm 1 mps 652 mmHg 83%
    20:00 +18°C° 0 mm 1 mps 653 mmHg 86%
    21:00 +16°C° 0 mm 1 mps 653 mmHg 89%
    22:00 +16°C° 0 mm 1 mps 653 mmHg 92%
    23:00 +15°C° 0 mm 1 mps 653 mmHg 86%

    24 February, Sunday

    Time Temperature Precipitation Wind Pressure Humidity
    00:00 +15°C° 0 mm 1 mps 652 mmHg 81%
    01:00 +15°C° 0 mm 1 mps 652 mmHg 76%
    02:00 +15°C° 0 mm 1 mps 652 mmHg 71%
    03:00 +15°C° 0 mm 1 mps 652 mmHg 67%
    04:00 +15°C° 0 mm 1 mps 652 mmHg 63%
    05:00 +15°C° 0 mm 1 mps 652 mmHg 61%
    06:00 +16°C° 0 mm 1 mps 653 mmHg 58%
    07:00 +18°C° 0 mm 1 mps 654 mmHg 55%
    08:00 +21°C° 0 mm 1 mps 655 mmHg 47%
    09:00 +25°C° 0 mm 1 mps 656 mmHg 38%
    10:00 +28°C° 0 mm 1 mps 657 mmHg 30%
    11:00 +29°C° 0 mm 1 mps 656 mmHg 28%
    12:00 +31°C° 0 mm 1 mps 656 mmHg 26%
    13:00 +32°C° 0 mm 2 mps 656 mmHg 24%
    14:00 +31°C° 0 mm 2 mps 655 mmHg 26%
    15:00 +30°C° 0 mm 2 mps 654 mmHg 27%
    16:00 +29°C° 0 mm 2 mps 654 mmHg 29%
    17:00 +25°C° 0 mm 2 mps 653 mmHg 39%
    18:00 +22°C° 0 mm 1 mps 652 mmHg 49%
    19:00 +18°C° 0 mm 1 mps 652 mmHg 60%
    20:00 +18°C° 0 mm 1 mps 652 mmHg 61%
    21:00 +16°C° 0 mm 1 mps 652 mmHg 63%
    22:00 +15°C° 0 mm 1 mps 652 mmHg 65%
    23:00 +15°C° 0 mm 1 mps 652 mmHg 64%
    Show more